Weather in Oktyabr'skiy

Russia / Altai Krai     51°16′51″N   81°42′33″E
temp.,
°C
wind,
m/s
gust,
m/s
humid.,
%
clouds,
%
prec.,
mm/h
press.,
hPa
HPBL,
m
8 march, mon
mon801:00−7sse3484100 0.0 102273
04:00−8sse478396 0.0 102098
07:00−8s5117777 0.0 1019159
10:00−6s8187559 0.0 1016435
13:00−2s10187874 0.0 1015637
16:00+1ssw91687100 0.0 1015962
19:00+1ssw81686100 0.0 1015700
22:000ssw91598100 0.4 1018741
9 march, tue
tue901:000wsw71198100 1.5 1022547
04:00−8wnw3695100 0.3 1027289
07:00−15ssw2310099 0.4 103022
10:00−14s359782 0.0 1031102
13:00−9s368952 0.0 1029238
16:00−6ssw35880 0.0 1027248
19:00−9s22931 0.0 102522
22:00−8sse34940 0.0 102572
10 march, wed
wed1001:00−3s5139428 0.0 1023300
04:00−5s349329 0.0 102183
07:00−5s4109250 0.0 1021205
10:00−4s499052 0.0 1019207
13:00−1s5118839 0.0 1016390
16:00+1s5148653 0.0 1013517
19:00+1s6177977 0.0 1011468
22:00+1s82075100 0.0 1010541
11 march, thu
thu1101:00+1ssw102082100 0.1 1010707
04:00+1ssw71499100 0.5 1010461
07:000wsw61099100 3.3 1013508
10:00−6w4794100 0.6 1016296
13:00−6sw4691100 0.6 1018313
16:00−4sw5992100 0.1 1021654
19:00−4ssw51091100 0.2 1022506
22:00−6sse8168833 0.0 1023391
12 march, fri
fri1201:00−5s9188217 0.0 1022540
04:00−5s8158298 0.0 1021507
07:00−5ssw6158299 0.0 1021493
10:00−5sw61096100 1.0 1021690
13:00−5w5795100 2.6 1021537
16:00−5wnw4595100 1.6 1021438
19:00−7nw2596100 3.0 1020393
22:00−8nw2496100 1.3 1020216